When you browse on this site, cookies collect data to enhance your experience and personalize the content and advertising you see.
Visit our Privacy Policy to learn more. By continuing to use the site, you agree to this use of cookies and data.
  • In Hungary
  • List of Countries
  • For 7 days
  • Water Temperature
  • Satellite Maps
  • Weather Map
  • News
  • Weather Widgets
  • user-avatar
    Login

    Hourly Weather Chelyadino

    Today, 26 May, Sunday

    Time Temperature Precipitation Wind Pressure Humidity
    00:00 +12°C° 0 mm 2 mps 735 mmHg 97%
    01:00 +12°C° 0 mm 2 mps 735 mmHg 97%
    02:00 +11°C° 0 mm 1 mps 735 mmHg 96%
    03:00 +11°C° 0 mm 1 mps 735 mmHg 95%
    04:00 +11°C° 0 mm 1 mps 735 mmHg 94%
    05:00 +12°C° 0 mm 1 mps 736 mmHg 93%
    06:00 +13°C° 0 mm 2 mps 736 mmHg 85%
    07:00 +15°C° 0 mm 2 mps 736 mmHg 76%
    08:00 +16°C° 0 mm 3 mps 736 mmHg 66%
    09:00 +17°C° 0 mm 3 mps 736 mmHg 61%
    10:00 +18°C° 0 mm 3 mps 736 mmHg 56%
    11:00 +19°C° 0 mm 3 mps 736 mmHg 51%
    12:00 +19°C° 0 mm 3 mps 736 mmHg 50%
    13:00 +19°C° 0 mm 3 mps 735 mmHg 49%
    14:00 +20°C° 0 mm 3 mps 735 mmHg 48%
    15:00 +19°C° 0 mm 3 mps 735 mmHg 50%
    16:00 +19°C° 0 mm 3 mps 735 mmHg 53%
    17:00 +18°C° 0 mm 2 mps 735 mmHg 55%
    18:00 +17°C° 0 mm 2 mps 734 mmHg 63%
    19:00 +15°C° 0 mm 2 mps 734 mmHg 71%
    20:00 +13°C° 0 mm 2 mps 734 mmHg 79%
    21:00 +12°C° 0 mm 2 mps 734 mmHg 80%
    22:00 +11°C° 0 mm 3 mps 734 mmHg 82%
    23:00 +10°C° 0 mm 3 mps 735 mmHg 84%

    Tomorrow, 27 May, Monday

    Time Temperature Precipitation Wind Pressure Humidity
    00:00 +10°C° 0 mm 3 mps 735 mmHg 84%
    01:00 +10°C° 0 mm 3 mps 735 mmHg 85%
    02:00 +10°C° 0 mm 3 mps 735 mmHg 85%
    03:00 +10°C° 0 mm 3 mps 735 mmHg 84%
    04:00 +10°C° 0 mm 4 mps 735 mmHg 83%
    05:00 +8°C° 0 mm 4 mps 736 mmHg 81%
    06:00 +10°C° 0 mm 4 mps 736 mmHg 79%
    07:00 +11°C° 0 mm 4 mps 736 mmHg 77%
    08:00 +11°C° 0 mm 4 mps 736 mmHg 75%
    09:00 +12°C° 0.1 mm 5 mps 736 mmHg 75%
    10:00 +13°C° 0.1 mm 5 mps 736 mmHg 75%
    11:00 +13°C° 0.1 mm 5 mps 737 mmHg 74%
    12:00 +14°C° 0.1 mm 5 mps 737 mmHg 71%
    13:00 +15°C° 0.1 mm 5 mps 737 mmHg 68%
    14:00 +16°C° 0.1 mm 5 mps 737 mmHg 65%
    15:00 +16°C° 0.1 mm 5 mps 738 mmHg 68%
    16:00 +16°C° 0.1 mm 5 mps 738 mmHg 72%
    17:00 +15°C° 0.1 mm 5 mps 738 mmHg 75%
    18:00 +15°C° 0 mm 4 mps 738 mmHg 80%
    19:00 +14°C° 0 mm 4 mps 738 mmHg 84%
    20:00 +13°C° 0 mm 3 mps 738 mmHg 89%
    21:00 +13°C° 0 mm 3 mps 738 mmHg 91%
    22:00 +13°C° 0 mm 3 mps 738 mmHg 94%
    23:00 +13°C° 0 mm 3 mps 738 mmHg 96%

    Day after tomorrow, 28 May, Tuesday

    Time Temperature Precipitation Wind Pressure Humidity
    00:00 +13°C° 0 mm 3 mps 739 mmHg 96%
    01:00 +12°C° 0 mm 3 mps 739 mmHg 97%
    02:00 +12°C° 0 mm 3 mps 739 mmHg 97%
    03:00 +14°C° 0 mm 2 mps 740 mmHg 96%
    04:00 +14°C° 0 mm 2 mps 740 mmHg 95%
    05:00 +14°C° 0 mm 2 mps 740 mmHg 94%
    06:00 +16°C° 0 mm 2 mps 740 mmHg 86%
    07:00 +18°C° 0 mm 2 mps 741 mmHg 79%
    08:00 +19°C° 0 mm 2 mps 741 mmHg 72%
    09:00 +21°C° 0.1 mm 3 mps 741 mmHg 66%
    10:00 +22°C° 0.1 mm 3 mps 741 mmHg 61%
    11:00 +25°C° 0.1 mm 4 mps 742 mmHg 55%
    12:00 +25°C° 0.2 mm 4 mps 741 mmHg 58%
    13:00 +25°C° 0.2 mm 4 mps 741 mmHg 60%
    14:00 +25°C° 0.2 mm 4 mps 741 mmHg 62%
    15:00 +23°C° 0.5 mm 4 mps 741 mmHg 68%
    16:00 +24°C° 0.5 mm 3 mps 741 mmHg 74%
    17:00 +22°C° 0.5 mm 3 mps 741 mmHg 81%
    18:00 +21°C° 0.5 mm 3 mps 741 mmHg 85%
    19:00 +20°C° 0.5 mm 3 mps 740 mmHg 89%
    20:00 +19°C° 0.5 mm 3 mps 740 mmHg 93%
    21:00 +18°C° 0.1 mm 3 mps 740 mmHg 93%
    22:00 +18°C° 0.1 mm 4 mps 740 mmHg 93%
    23:00 +18°C° 0.1 mm 4 mps 740 mmHg 93%

    29 May, Wednesday

    Time Temperature Precipitation Wind Pressure Humidity
    00:00 +18°C° 0 mm 4 mps 741 mmHg 93%
    01:00 +18°C° 0 mm 4 mps 741 mmHg 93%
    02:00 +17°C° 0 mm 4 mps 741 mmHg 93%
    03:00 +17°C° 0 mm 4 mps 741 mmHg 92%
    04:00 +18°C° 0 mm 4 mps 741 mmHg 91%
    05:00 +18°C° 0 mm 4 mps 742 mmHg 90%
    06:00 +19°C° 0 mm 4 mps 742 mmHg 84%
    07:00 +21°C° 0 mm 4 mps 742 mmHg 77%
    08:00 +23°C° 0 mm 4 mps 742 mmHg 71%
    09:00 +25°C° 0 mm 5 mps 742 mmHg 64%
    10:00 +26°C° 0 mm 5 mps 742 mmHg 57%
    11:00 +27°C° 0 mm 6 mps 742 mmHg 50%
    12:00 +28°C° 0 mm 6 mps 742 mmHg 48%
    13:00 +28°C° 0 mm 6 mps 742 mmHg 46%
    14:00 +29°C° 0 mm 6 mps 742 mmHg 44%
    15:00 +28°C° 0 mm 6 mps 742 mmHg 48%
    16:00 +28°C° 0 mm 5 mps 742 mmHg 51%
    17:00 +27°C° 0 mm 5 mps 741 mmHg 55%
    18:00 +26°C° 0 mm 4 mps 742 mmHg 61%
    19:00 +23°C° 0 mm 4 mps 742 mmHg 67%
    20:00 +21°C° 0 mm 3 mps 742 mmHg 73%
    21:00 +20°C° 0 mm 3 mps 742 mmHg 76%
    22:00 +19°C° 0 mm 3 mps 742 mmHg 78%
    23:00 +18°C° 0 mm 3 mps 742 mmHg 81%

    30 May, Thursday

    Time Temperature Precipitation Wind Pressure Humidity
    00:00 +18°C° 0 mm 3 mps 742 mmHg 81%
    01:00 +19°C° 0 mm 3 mps 742 mmHg 81%
    02:00 +19°C° 0 mm 3 mps 742 mmHg 82%
    03:00 +19°C° 0 mm 3 mps 742 mmHg 82%
    04:00 +19°C° 0 mm 4 mps 742 mmHg 83%
    05:00 +19°C° 0 mm 4 mps 742 mmHg 84%
    06:00 +21°C° 0 mm 4 mps 742 mmHg 79%
    07:00 +22°C° 0 mm 4 mps 742 mmHg 74%
    08:00 +23°C° 0 mm 5 mps 743 mmHg 68%
    09:00 +23°C° 1.1 mm 5 mps 743 mmHg 73%
    10:00 +23°C° 1.1 mm 4 mps 743 mmHg 78%
    11:00 +22°C° 1.1 mm 4 mps 743 mmHg 83%
    12:00 +22°C° 0.9 mm 4 mps 743 mmHg 83%
    13:00 +22°C° 0.9 mm 3 mps 744 mmHg 84%
    14:00 +22°C° 0.9 mm 3 mps 744 mmHg 84%
    15:00 +21°C° 0.3 mm 3 mps 744 mmHg 82%
    16:00 +21°C° 0.3 mm 2 mps 744 mmHg 80%
    17:00 +21°C° 0.3 mm 2 mps 744 mmHg 78%
    18:00 +19°C° 0 mm 2 mps 745 mmHg 81%
    19:00 +18°C° 0 mm 2 mps 745 mmHg 84%
    20:00 +17°C° 0 mm 2 mps 745 mmHg 87%
    21:00 +16°C° 0 mm 1 mps 745 mmHg 89%
    22:00 +15°C° 0 mm 1 mps 746 mmHg 91%
    23:00 +14°C° 0 mm 1 mps 746 mmHg 93%

    31 May, Friday

    Time Temperature Precipitation Wind Pressure Humidity
    00:00 +14°C° 0 mm 1 mps 746 mmHg 93%
    01:00 +13°C° 0 mm 1 mps 746 mmHg 93%
    02:00 +13°C° 0 mm 1 mps 746 mmHg 93%
    03:00 +13°C° 0 mm 2 mps 746 mmHg 91%
    04:00 +14°C° 0 mm 2 mps 746 mmHg 89%
    05:00 +14°C° 0 mm 2 mps 745 mmHg 87%
    06:00 +15°C° 0 mm 2 mps 745 mmHg 85%
    07:00 +16°C° 0 mm 2 mps 745 mmHg 83%
    08:00 +18°C° 0 mm 1 mps 745 mmHg 81%
    09:00 +19°C° 0 mm 2 mps 745 mmHg 79%
    10:00 +20°C° 0 mm 2 mps 744 mmHg 76%
    11:00 +21°C° 0 mm 2 mps 744 mmHg 74%
    12:00 +23°C° 0 mm 2 mps 744 mmHg 73%
    13:00 +23°C° 0 mm 2 mps 743 mmHg 72%
    14:00 +24°C° 0 mm 2 mps 743 mmHg 71%
    15:00 +24°C° 0 mm 2 mps 743 mmHg 72%
    16:00 +24°C° 0 mm 2 mps 743 mmHg 73%
    17:00 +24°C° 0 mm 2 mps 742 mmHg 73%
    18:00 +23°C° 0.1 mm 2 mps 742 mmHg 80%
    19:00 +20°C° 0.1 mm 2 mps 742 mmHg 86%
    20:00 +20°C° 0.1 mm 1 mps 742 mmHg 92%
    21:00 +20°C° 1.2 mm 1 mps 742 mmHg 94%
    22:00 +19°C° 1.2 mm 1 mps 742 mmHg 95%
    23:00 +18°C° 1.2 mm 1 mps 742 mmHg 97%
    Show more